TimeCST,TemperatureF,Dew PointF,Humidity,Sea Level PressureIn,VisibilityMPH,Wind Direction,Wind SpeedMPH,Gust SpeedMPH,PrecipitationIn,Events,Conditions,WindDirDegrees,DateUTC
12:15 AM,34.7,25.5,69,30.11,10.0,Calm,Calm,-,N/A,,Clear,0,2014-02-18 06:15:00
12:35 AM,33.6,25.7,73,30.11,10.0,Calm,Calm,-,N/A,,Clear,0,2014-02-18 06:35:00
12:55 AM,32.2,25.7,77,30.11,10.0,Calm,Calm,-,N/A,,Clear,0,2014-02-18 06:55:00
1:15 AM,31.1,25.3,79,30.11,10.0,Calm,Calm,-,N/A,,Clear,0,2014-02-18 07:15:00
1:35 AM,30.2,25.9,84,30.10,10.0,Calm,Calm,-,N/A,,Clear,0,2014-02-18 07:35:00
1:55 AM,29.7,27.3,91,30.11,10.0,Calm,Calm,-,N/A,,Clear,0,2014-02-18 07:55:00
2:15 AM,29.7,28.4,95,30.11,10.0,Calm,Calm,-,N/A,,Clear,0,2014-02-18 08:15:00
2:35 AM,29.3,28.0,95,30.12,10.0,Calm,Calm,-,N/A,,Clear,0,2014-02-18 08:35:00
2:55 AM,28.6,27.1,94,30.11,10.0,Calm,Calm,-,N/A,,Clear,0,2014-02-18 08:55:00
3:15 AM,28.4,27.1,95,30.12,10.0,Calm,Calm,-,N/A,,Clear,0,2014-02-18 09:15:00
3:35 AM,28.2,27.3,96,30.12,10.0,Calm,Calm,-,N/A,,Clear,0,2014-02-18 09:35:00
3:55 AM,28.0,27.1,96,30.12,10.0,Calm,Calm,-,N/A,,Clear,0,2014-02-18 09:55:00
4:15 AM,27.9,27.0,96,30.12,10.0,Calm,Calm,-,N/A,,Clear,0,2014-02-18 10:15:00
4:35 AM,27.7,27.0,97,30.12,10.0,Calm,Calm,-,N/A,,Clear,0,2014-02-18 10:35:00
4:55 AM,28.0,27.3,97,30.13,10.0,Calm,Calm,-,N/A,,Clear,0,2014-02-18 10:55:00
5:15 AM,27.7,26.6,96,30.12,10.0,Calm,Calm,-,N/A,,Clear,0,2014-02-18 11:15:00
5:35 AM,27.5,26.6,96,30.11,10.0,Calm,Calm,-,N/A,,Clear,0,2014-02-18 11:35:00
5:55 AM,27.1,26.4,97,30.11,10.0,Calm,Calm,-,N/A,,Clear,0,2014-02-18 11:55:00
6:15 AM,27.3,26.6,97,30.11,10.0,Calm,Calm,-,N/A,,Clear,0,2014-02-18 12:15:00
6:35 AM,27.3,26.2,96,30.11,10.0,Calm,Calm,-,N/A,,Clear,0,2014-02-18 12:35:00
6:55 AM,26.6,25.9,97,30.11,10.0,Calm,Calm,-,N/A,,Clear,0,2014-02-18 12:55:00
7:15 AM,27.1,26.4,97,30.11,10.0,Calm,Calm,-,N/A,,Clear,0,2014-02-18 13:15:00
7:35 AM,29.8,28.6,95,30.12,10.0,Calm,Calm,-,N/A,,Clear,0,2014-02-18 13:35:00
7:55 AM,32.0,28.9,88,30.12,10.0,Calm,Calm,-,N/A,,Clear,0,2014-02-18 13:55:00
8:15 AM,34.9,30.6,84,30.12,10.0,Calm,Calm,-,N/A,,Clear,0,2014-02-18 14:15:00
8:35 AM,38.1,30.2,73,30.12,10.0,Calm,Calm,-,N/A,,Clear,0,2014-02-18 14:35:00
8:55 AM,41.4,30.4,65,30.12,10.0,ESE,3.5,-,N/A,,Clear,110,2014-02-18 14:55:00
9:15 AM,44.6,29.1,55,30.11,10.0,SSE,5.8,-,N/A,,Clear,160,2014-02-18 15:15:00
9:35 AM,46.8,28.2,49,30.11,10.0,SSE,6.9,-,N/A,,Clear,160,2014-02-18 15:35:00
9:55 AM,49.1,29.1,46,30.10,10.0,SSE,5.8,-,N/A,,Clear,150,2014-02-18 15:55:00
10:15 AM,50.5,29.7,45,30.10,10.0,SSE,6.9,-,N/A,,Clear,160,2014-02-18 16:15:00
10:35 AM,51.8,28.8,41,30.10,10.0,South,6.9,-,N/A,,Clear,170,2014-02-18 16:35:00
10:55 AM,52.7,30.2,42,30.09,10.0,South,6.9,-,N/A,,Clear,170,2014-02-18 16:55:00
11:15 AM,53.8,29.7,40,30.08,10.0,South,10.4,-,N/A,,Clear,190,2014-02-18 17:15:00
11:35 AM,54.7,29.1,38,30.08,10.0,South,10.4,-,N/A,,Clear,190,2014-02-18 17:35:00
11:55 AM,54.0,28.4,37,30.06,10.0,South,11.5,19.6,N/A,,Clear,190,2014-02-18 17:55:00
12:15 PM,53.8,29.8,40,30.05,10.0,South,9.2,-,N/A,,Clear,190,2014-02-18 18:15:00
12:35 PM,55.2,31.3,40,30.03,10.0,South,9.2,-,N/A,,Clear,170,2014-02-18 18:35:00
12:55 PM,56.5,26.1,31,30.01,10.0,SSE,10.4,-,N/A,,Clear,160,2014-02-18 18:55:00
1:15 PM,56.3,27.1,33,29.99,10.0,SSE,10.4,17.3,N/A,,Clear,150,2014-02-18 19:15:00
1:35 PM,56.5,26.4,32,29.96,10.0,SSE,11.5,-,N/A,,Clear,160,2014-02-18 19:35:00
1:55 PM,57.2,27.0,31,29.95,10.0,SSE,9.2,-,N/A,,Clear,160,2014-02-18 19:55:00
2:15 PM,57.4,29.5,35,29.93,10.0,South,5.8,-,N/A,,Clear,170,2014-02-18 20:15:00
2:35 PM,58.3,28.6,32,29.92,10.0,SSE,5.8,-,N/A,,Clear,160,2014-02-18 20:35:00
2:55 PM,59.2,31.3,35,29.92,10.0,South,6.9,-,N/A,,Clear,180,2014-02-18 20:55:00
3:15 PM,59.2,28.2,31,29.90,10.0,South,9.2,18.4,N/A,,Clear,170,2014-02-18 21:15:00
3:35 PM,58.5,29.8,34,29.89,10.0,South,13.8,-,N/A,,Clear,180,2014-02-18 21:35:00
3:55 PM,58.8,30.4,34,29.88,10.0,South,8.1,16.1,N/A,,Clear,170,2014-02-18 21:55:00
4:15 PM,58.3,31.3,36,29.88,10.0,South,6.9,-,N/A,,Clear,180,2014-02-18 22:15:00
4:35 PM,58.5,31.5,36,29.86,10.0,South,4.6,-,N/A,,Clear,180,2014-02-18 22:35:00
4:55 PM,57.6,32.0,38,29.85,10.0,South,4.6,-,N/A,,Clear,170,2014-02-18 22:55:00
5:20 PM,58.3,32.0,37,29.83,10.0,SSE,4.6,-,N/A,,Clear,160,2014-02-18 23:20:00
5:35 PM,56.8,32.0,39,29.84,10.0,South,4.6,-,N/A,,Clear,170,2014-02-18 23:35:00
5:55 PM,57.0,32.0,39,29.83,10.0,South,3.5,-,N/A,,Clear,170,2014-02-18 23:55:00
6:15 PM,56.3,32.0,40,29.84,10.0,South,3.5,-,N/A,,Scattered Clouds,190,2014-02-19 00:15:00
6:35 PM,55.9,32.0,40,29.85,10.0,SSE,4.6,-,N/A,,Scattered Clouds,160,2014-02-19 00:35:00
6:55 PM,56.5,32.0,39,29.84,10.0,South,4.6,-,N/A,,Scattered Clouds,170,2014-02-19 00:55:00
7:15 PM,56.3,32.0,40,29.83,10.0,SSE,4.6,-,N/A,,Mostly Cloudy,160,2014-02-19 01:15:00
7:35 PM,55.0,32.4,42,29.83,10.0,Calm,Calm,-,N/A,,Scattered Clouds,0,2014-02-19 01:35:00
7:55 PM,54.5,32.5,43,29.83,10.0,Calm,Calm,-,N/A,,Scattered Clouds,0,2014-02-19 01:55:00
8:15 PM,53.4,33.4,47,29.85,10.0,Calm,Calm,-,N/A,,Mostly Cloudy,0,2014-02-19 02:15:00
8:35 PM,50.5,34.2,53,29.84,10.0,Calm,Calm,-,N/A,,Overcast,0,2014-02-19 02:35:00
8:55 PM,48.6,34.9,59,29.84,10.0,Calm,Calm,-,N/A,,Mostly Cloudy,0,2014-02-19 02:55:00
9:15 PM,47.7,35.6,63,29.85,10.0,Calm,Calm,-,N/A,,Overcast,0,2014-02-19 03:15:00
9:35 PM,49.1,36.1,61,29.84,10.0,South,3.5,-,N/A,,Mostly Cloudy,190,2014-02-19 03:35:00
9:55 PM,53.1,37.9,57,29.84,10.0,South,4.6,-,N/A,,Overcast,190,2014-02-19 03:55:00
10:15 PM,54.5,39.2,56,29.83,10.0,South,4.6,-,N/A,Thunderstorm,Mostly Cloudy,190,2014-02-19 04:15:00
10:35 PM,54.7,41.2,60,29.83,10.0,SSW,5.8,-,N/A,Thunderstorm,Thunderstorm,210,2014-02-19 04:35:00
10:55 PM,56.1,45.3,67,29.83,10.0,WSW,6.9,-,N/A,Thunderstorm,Overcast,240,2014-02-19 04:55:00
11:15 PM,56.5,49.3,77,29.83,10.0,WSW,11.5,17.3,N/A,Thunderstorm,Thunderstorm,240,2014-02-19 05:15:00
11:35 PM,57.0,53.1,87,29.82,7.0,SW,12.7,17.3,N/A,,Mostly Cloudy,230,2014-02-19 05:35:00
11:55 PM,57.0,54.9,92,29.81,5.0,WSW,10.4,17.3,N/A,,Mostly Cloudy,240,2014-02-19 05:55:00